Wetterdaten: Woche 28.11.05 - 04.12.05 (KW48)
Datum Zeit Temperatur Luftfeuchte Luftdruck Niederschlag Windrichtung Wind
28.11.2005 00:00 -0,6 C 76 % 999 hPa 0,0 l/m SW 19,0 km/h (3 Bft)
28.11.2005 01:00 -0,5 C 76 % 999 hPa 0,0 l/m SW 21,2 km/h (4 Bft)
28.11.2005 02:00 -0,2 C 75 % 1000 hPa 0,0 l/m SW 19,2 km/h (3 Bft)
28.11.2005 03:00 -0,1 C 73 % 1000 hPa 0,0 l/m S-SW 18,5 km/h (3 Bft)
28.11.2005 04:00 -0,0 C 73 % 1000 hPa 0,0 l/m SW 19,1 km/h (3 Bft)
28.11.2005 05:00 -0,0 C 71 % 1000 hPa 0,0 l/m SW 17,8 km/h (3 Bft)
28.11.2005 06:00 0,1 C 71 % 1000 hPa 0,0 l/m S-SW 19,7 km/h (3 Bft)
28.11.2005 07:00 0,3 C 70 % 1000 hPa 0,0 l/m SW 22,3 km/h (4 Bft)
28.11.2005 08:00 -0,0 C 78 % 1001 hPa 0,0 l/m S-SW 19,4 km/h (3 Bft)
28.11.2005 09:00 -0,1 C 83 % 1001 hPa 0,0 l/m SW 19,0 km/h (3 Bft)
28.11.2005 10:00 0,3 C 81 % 1002 hPa 0,0 l/m SW 20,3 km/h (4 Bft)
28.11.2005 11:00 0,5 C 81 % 1002 hPa 0,0 l/m S-SW 19,8 km/h (3 Bft)
28.11.2005 12:00 0,9 C 77 % 1002 hPa 0,0 l/m SW 21,0 km/h (4 Bft)
28.11.2005 13:00 1,4 C 72 % 1002 hPa 0,0 l/m W-SW 20,6 km/h (4 Bft)
28.11.2005 14:00 1,4 C 71 % 1003 hPa 0,0 l/m SW 18,9 km/h (3 Bft)
28.11.2005 15:00 1,2 C 75 % 1003 hPa 0,0 l/m W-SW 18,3 km/h (3 Bft)
28.11.2005 16:00 0,7 C 81 % 1003 hPa 0,0 l/m SW 19,2 km/h (3 Bft)
28.11.2005 17:00 0,2 C 91 % 1003 hPa 0,0 l/m S-SW 17,1 km/h (3 Bft)
28.11.2005 18:00 0,1 C 98 % 1003 hPa 0,0 l/m S-SW 14,0 km/h (3 Bft)
28.11.2005 19:00 0,2 C 100 % 1003 hPa 0,0 l/m S-SW 13,2 km/h (3 Bft)
28.11.2005 20:00 0,5 C 98 % 1004 hPa 0,0 l/m S-SW 13,9 km/h (3 Bft)
28.11.2005 21:00 0,5 C 94 % 1004 hPa 0,0 l/m W-SW 15,8 km/h (3 Bft)
28.11.2005 22:00 0,5 C 95 % 1004 hPa 0,0 l/m W-SW 13,5 km/h (3 Bft)
28.11.2005 23:00 0,5 C 97 % 1004 hPa 0,0 l/m SW 11,8 km/h (2 Bft)
29.11.2005 00:00 0,4 C 97 % 1004 hPa 0,0 l/m S-SW 11,1 km/h (2 Bft)
29.11.2005 01:00 0,2 C 99 % 1004 hPa 0,0 l/m S-SW 12,1 km/h (2 Bft)
29.11.2005 02:00 0,3 C 100 % 1005 hPa 0,0 l/m S-SW 12,8 km/h (3 Bft)
29.11.2005 03:00 0,2 C 100 % 1005 hPa 0,0 l/m S 11,3 km/h (2 Bft)
29.11.2005 04:00 0,6 C 100 % 1004 hPa 0,0 l/m S-SW 7,6 km/h (2 Bft)
29.11.2005 05:00 0,5 C 100 % 1004 hPa 0,0 l/m S 0,2 km/h (0 Bft)
29.11.2005 06:00 0,3 C 100 % 1004 hPa 0,0 l/m N 0,0 km/h (0 Bft)
29.11.2005 07:00 0,2 C 100 % 1005 hPa 0,0 l/m N 0,0 km/h (0 Bft)
29.11.2005 08:00 0,3 C 100 % 1005 hPa 0,0 l/m N 0,0 km/h (0 Bft)
29.11.2005 09:00 0,5 C 100 % 1005 hPa 0,0 l/m N 0,0 km/h (0 Bft)
29.11.2005 10:00 1,0 C 100 % 1005 hPa 0,0 l/m N 0,0 km/h (0 Bft)
29.11.2005 11:00 1,2 C 100 % 1005 hPa 0,0 l/m N 0,0 km/h (0 Bft)
29.11.2005 12:00 1,6 C 100 % 1005 hPa 0,0 l/m N 0,0 km/h (0 Bft)
29.11.2005 13:00 2,0 C 100 % 1005 hPa 1,0 l/m N 0,0 km/h (0 Bft)
29.11.2005 14:00 2,0 C 99 % 1005 hPa 0,0 l/m N 0,0 km/h (0 Bft)
29.11.2005 15:00 2,0 C 98 % 1006 hPa 0,0 l/m N 0,0 km/h (0 Bft)
29.11.2005 16:00 1,6 C 98 % 1005 hPa 0,0 l/m N 0,0 km/h (0 Bft)
29.11.2005 17:00 1,1 C 98 % 1006 hPa 0,0 l/m N 0,0 km/h (0 Bft)
29.11.2005 18:00 0,8 C 98 % 1006 hPa 0,0 l/m N 0,0 km/h (0 Bft)
29.11.2005 19:00 0,9 C 99 % 1006 hPa 0,0 l/m N 0,0 km/h (0 Bft)
29.11.2005 20:00 0,8 C 99 % 1007 hPa 0,0 l/m N 0,0 km/h (0 Bft)
29.11.2005 21:00 0,4 C 100 % 1007 hPa 0,0 l/m N 0,0 km/h (0 Bft)
29.11.2005 22:00 0,1 C 100 % 1008 hPa 0,0 l/m N 0,0 km/h (0 Bft)
29.11.2005 23:00 0,0 C 100 % 1008 hPa 0,0 l/m N 0,0 km/h (0 Bft)
30.11.2005 00:00 -0,1 C 100 % 1008 hPa 0,0 l/m N 0,0 km/h (0 Bft)
30.11.2005 01:00 -0,5 C 100 % 1009 hPa 0,0 l/m N 0,0 km/h (0 Bft)
30.11.2005 02:00 -1,0 C 100 % 1009 hPa 0,0 l/m N 0,0 km/h (0 Bft)
30.11.2005 03:00 -1,7 C 100 % 1010 hPa 0,0 l/m N 0,0 km/h (0 Bft)
30.11.2005 04:00 -1,8 C 100 % 1010 hPa 0,0 l/m N 0,0 km/h (0 Bft)
30.11.2005 05:00 -1,7 C 100 % 1010 hPa 0,0 l/m N 0,0 km/h (0 Bft)
30.11.2005 06:00 -1,4 C 100 % 1011 hPa 0,0 l/m N 0,0 km/h (0 Bft)
30.11.2005 07:00 -0,9 C 100 % 1011 hPa 0,0 l/m N 0,0 km/h (0 Bft)
30.11.2005 08:00 -0,4 C 100 % 1012 hPa 0,0 l/m N 0,0 km/h (0 Bft)
30.11.2005 09:00 -0,0 C 100 % 1012 hPa 0,0 l/m N 0,0 km/h (0 Bft)
30.11.2005 10:00 0,4 C 100 % 1013 hPa 0,0 l/m N 0,0 km/h (0 Bft)
30.11.2005 11:00 0,7 C 97 % 1013 hPa 2,0 l/m N 0,0 km/h (0 Bft)
30.11.2005 12:00 1,0 C 92 % 1013 hPa 0,0 l/m N 0,0 km/h (0 Bft)
30.11.2005 13:00 1,2 C 89 % 1013 hPa 0,0 l/m N 0,0 km/h (0 Bft)
30.11.2005 14:00 1,3 C 89 % 1013 hPa 0,0 l/m N 0,0 km/h (0 Bft)
30.11.2005 15:00 1,3 C 88 % 1013 hPa 0,0 l/m N 0,0 km/h (0 Bft)
30.11.2005 16:00 0,9 C 84 % 1013 hPa 0,0 l/m N 0,0 km/h (0 Bft)
30.11.2005 17:00 0,5 C 86 % 1013 hPa 0,0 l/m N 0,0 km/h (0 Bft)
30.11.2005 18:00 0,3 C 87 % 1013 hPa 0,0 l/m N 0,0 km/h (0 Bft)
30.11.2005 19:00 0,0 C 88 % 1014 hPa 0,0 l/m N 0,0 km/h (0 Bft)
30.11.2005 20:00 -0,3 C 90 % 1014 hPa 0,0 l/m N 0,0 km/h (0 Bft)
30.11.2005 21:00 -0,5 C 91 % 1014 hPa 0,0 l/m N 0,0 km/h (0 Bft)
30.11.2005 22:00 -0,7 C 91 % 1014 hPa 0,0 l/m N 0,0 km/h (0 Bft)
30.11.2005 23:00 -1,7 C 92 % 1014 hPa 0,0 l/m N 0,0 km/h (0 Bft)
01.12.2005 00:00 -3,0 C 92 % 1014 hPa 0,0 l/m N 0,0 km/h (0 Bft)
01.12.2005 01:00 -4,0 C 93 % 1014 hPa 0,0 l/m N 0,0 km/h (0 Bft)
01.12.2005 02:00 -4,7 C 93 % 1013 hPa 0,0 l/m N 0,0 km/h (0 Bft)
01.12.2005 03:00 -5,5 C 93 % 1013 hPa 0,0 l/m N 0,0 km/h (0 Bft)
01.12.2005 04:00 -5,8 C 93 % 1013 hPa 0,0 l/m N 0,0 km/h (0 Bft)
01.12.2005 05:00 -6,1 C 94 % 1013 hPa 0,0 l/m N 0,0 km/h (0 Bft)
01.12.2005 06:00 -6,6 C 93 % 1013 hPa 0,0 l/m N 0,0 km/h (0 Bft)
01.12.2005 07:00 -6,9 C 93 % 1013 hPa 0,0 l/m N 0,0 km/h (0 Bft)
01.12.2005 08:00 -6,6 C 95 % 1013 hPa 0,0 l/m N 0,0 km/h (0 Bft)
01.12.2005 09:00 -5,7 C 99 % 1013 hPa 0,0 l/m N 0,0 km/h (0 Bft)
01.12.2005 10:00 -4,6 C 100 % 1013 hPa 0,0 l/m N 0,0 km/h (0 Bft)
01.12.2005 11:00 -3,7 C 99 % 1012 hPa 0,0 l/m N 0,0 km/h (0 Bft)
01.12.2005 12:00 -2,9 C 97 % 1011 hPa 0,0 l/m N 0,0 km/h (0 Bft)
01.12.2005 13:00 -2,2 C 88 % 1011 hPa 0,0 l/m N 0,0 km/h (0 Bft)
01.12.2005 14:00 -2,2 C 81 % 1011 hPa 0,0 l/m N 0,0 km/h (0 Bft)
01.12.2005 15:00 -2,7 C 80 % 1010 hPa 0,0 l/m N 0,0 km/h (0 Bft)
01.12.2005 16:00 -3,2 C 83 % 1010 hPa 0,0 l/m N 0,0 km/h (0 Bft)
01.12.2005 17:00 -3,6 C 86 % 1010 hPa 0,0 l/m N 0,0 km/h (0 Bft)
01.12.2005 18:00 -3,6 C 88 % 1010 hPa 0,0 l/m N 0,0 km/h (0 Bft)
01.12.2005 19:00 -3,6 C 90 % 1009 hPa 0,0 l/m N 0,0 km/h (0 Bft)
01.12.2005 20:00 -3,7 C 90 % 1009 hPa 0,0 l/m N 0,0 km/h (0 Bft)
01.12.2005 21:00 -3,8 C 91 % 1009 hPa 0,0 l/m N 0,0 km/h (0 Bft)
01.12.2005 22:00 -4,1 C 91 % 1009 hPa 0,0 l/m N 0,0 km/h (0 Bft)
01.12.2005 23:00 -4,5 C 93 % 1008 hPa 0,0 l/m N 0,0 km/h (0 Bft)
02.12.2005 00:00 -4,6 C 95 % 1008 hPa 0,0 l/m N 0,0 km/h (0 Bft)
02.12.2005 01:00 -5,1 C 96 % 1008 hPa 0,0 l/m N 0,0 km/h (0 Bft)
02.12.2005 02:00 -5,5 C 97 % 1007 hPa 0,0 l/m N 0,0 km/h (0 Bft)
02.12.2005 03:00 -5,8 C 99 % 1007 hPa 0,0 l/m N 0,0 km/h (0 Bft)
02.12.2005 04:00 -6,3 C 99 % 1006 hPa 0,0 l/m N 0,0 km/h (0 Bft)
02.12.2005 05:00 -6,6 C 99 % 1006 hPa 0,0 l/m N 0,0 km/h (0 Bft)
02.12.2005 06:00 -7,3 C 98 % 1005 hPa 0,0 l/m N 0,0 km/h (0 Bft)
02.12.2005 07:00 -7,7 C 98 % 1005 hPa 0,0 l/m N 0,0 km/h (0 Bft)
02.12.2005 08:00 -8,1 C 96 % 1005 hPa 0,0 l/m N 0,0 km/h (0 Bft)
02.12.2005 09:00 -7,6 C 94 % 1004 hPa 0,0 l/m N 0,0 km/h (0 Bft)
02.12.2005 10:00 -6,4 C 90 % 1004 hPa 0,0 l/m N 0,0 km/h (0 Bft)
02.12.2005 11:00 -4,5 C 79 % 1004 hPa 0,0 l/m N 0,0 km/h (0 Bft)
02.12.2005 12:00 -2,9 C 67 % 1004 hPa 0,0 l/m N 0,0 km/h (0 Bft)
02.12.2005 13:00 -2,6 C 69 % 1003 hPa 0,0 l/m N 0,0 km/h (0 Bft)
02.12.2005 14:00 -1,9 C 66 % 1002 hPa 0,0 l/m N 0,0 km/h (0 Bft)
02.12.2005 15:00 -2,0 C 68 % 1002 hPa 0,0 l/m N 0,0 km/h (0 Bft)
02.12.2005 16:00 -2,8 C 75 % 1001 hPa 0,0 l/m N 0,0 km/h (0 Bft)
02.12.2005 17:00 -3,0 C 80 % 1001 hPa 0,0 l/m N 0,0 km/h (0 Bft)
02.12.2005 18:00 -2,7 C 80 % 1000 hPa 0,0 l/m N 0,0 km/h (0 Bft)
02.12.2005 19:00 -2,5 C 81 % 1000 hPa 0,0 l/m N 0,0 km/h (0 Bft)
02.12.2005 20:00 -2,8 C 83 % 1000 hPa 0,0 l/m N 0,0 km/h (0 Bft)
02.12.2005 21:00 -2,8 C 86 % 1000 hPa 0,0 l/m N 0,0 km/h (0 Bft)
02.12.2005 22:00 -3,1 C 87 % 1001 hPa 0,0 l/m N 0,0 km/h (0 Bft)
02.12.2005 23:00 -3,2 C 89 % 1002 hPa 0,0 l/m N 0,0 km/h (0 Bft)
03.12.2005 00:00 -2,7 C 89 % 1002 hPa 0,0 l/m N 0,0 km/h (0 Bft)
03.12.2005 01:00 -2,3 C 90 % 1002 hPa 0,0 l/m N 0,0 km/h (0 Bft)
03.12.2005 02:00 -1,9 C 93 % 1003 hPa 0,0 l/m N 0,0 km/h (0 Bft)
03.12.2005 03:00 -1,2 C 96 % 1002 hPa 0,0 l/m N 0,0 km/h (0 Bft)
03.12.2005 04:00 -0,7 C 95 % 1002 hPa 0,0 l/m N 0,0 km/h (0 Bft)
03.12.2005 05:00 -0,2 C 96 % 1002 hPa 0,0 l/m N 0,0 km/h (0 Bft)
03.12.2005 06:00 0,3 C 97 % 1002 hPa 0,0 l/m N 0,0 km/h (0 Bft)
03.12.2005 07:00 0,3 C 97 % 1002 hPa 0,0 l/m N 0,0 km/h (0 Bft)
03.12.2005 08:00 0,4 C 98 % 1003 hPa 0,0 l/m N 0,0 km/h (0 Bft)
03.12.2005 09:00 0,6 C 99 % 1003 hPa 0,0 l/m N 0,0 km/h (0 Bft)
03.12.2005 10:00 1,0 C 100 % 1004 hPa 0,0 l/m N 0,0 km/h (0 Bft)
03.12.2005 11:00 1,6 C 100 % 1004 hPa 1,0 l/m N 0,0 km/h (0 Bft)
03.12.2005 12:00 2,7 C 100 % 1004 hPa 0,0 l/m N 0,0 km/h (0 Bft)
03.12.2005 13:00 2,3 C 99 % 1004 hPa 0,0 l/m N 0,0 km/h (0 Bft)
03.12.2005 14:00 2,0 C 100 % 1005 hPa 0,0 l/m N 0,0 km/h (0 Bft)
03.12.2005 15:00 1,6 C 100 % 1005 hPa 0,0 l/m N 0,0 km/h (0 Bft)
03.12.2005 16:00 1,6 C 100 % 1006 hPa 0,0 l/m N 0,0 km/h (0 Bft)
03.12.2005 17:00 1,7 C 100 % 1006 hPa 0,0 l/m N 0,0 km/h (0 Bft)
03.12.2005 18:00 1,6 C 100 % 1006 hPa 0,0 l/m N 0,0 km/h (0 Bft)
03.12.2005 19:00 2,1 C 100 % 1007 hPa 0,0 l/m N 0,0 km/h (0 Bft)
03.12.2005 20:00 1,9 C 100 % 1007 hPa 0,0 l/m N 0,0 km/h (0 Bft)
03.12.2005 21:00 2,3 C 99 % 1007 hPa 0,0 l/m N 0,0 km/h (0 Bft)
03.12.2005 22:00 2,4 C 93 % 1007 hPa 0,0 l/m N 0,0 km/h (0 Bft)
03.12.2005 23:00 2,4 C 90 % 1007 hPa 0,0 l/m N 0,0 km/h (0 Bft)
04.12.2005 00:00 2,1 C 94 % 1007 hPa 0,0 l/m N 0,0 km/h (0 Bft)
04.12.2005 01:00 2,1 C 90 % 1007 hPa 0,0 l/m N 0,0 km/h (0 Bft)
04.12.2005 02:00 1,6 C 93 % 1007 hPa 0,0 l/m N 0,0 km/h (0 Bft)
04.12.2005 03:00 2,1 C 93 % 1006 hPa 0,0 l/m N 0,0 km/h (0 Bft)
04.12.2005 04:00 1,9 C 93 % 1005 hPa 0,0 l/m N 0,0 km/h (0 Bft)
04.12.2005 05:00 2,9 C 91 % 1005 hPa 0,0 l/m SW 5,6 km/h (1 Bft)
04.12.2005 06:00 3,9 C 85 % 1006 hPa 1,0 l/m SW 16,7 km/h (3 Bft)
04.12.2005 07:00 3,0 C 90 % 1006 hPa 1,0 l/m S-SW 17,9 km/h (3 Bft)
04.12.2005 08:00 3,2 C 95 % 1006 hPa 0,0 l/m S-SW 18,2 km/h (3 Bft)
04.12.2005 09:00 3,1 C 94 % 1006 hPa 1,0 l/m S-SW 13,4 km/h (3 Bft)
04.12.2005 10:00 3,1 C 97 % 1006 hPa 0,0 l/m S-SW 15,1 km/h (3 Bft)
04.12.2005 11:00 3,8 C 93 % 1006 hPa 1,0 l/m S-SW 14,6 km/h (3 Bft)
04.12.2005 12:00 5,0 C 82 % 1005 hPa 0,0 l/m S-SW 10,8 km/h (2 Bft)
04.12.2005 13:00 5,3 C 79 % 1004 hPa 0,0 l/m S-SW 9,9 km/h (2 Bft)
04.12.2005 14:00 5,9 C 78 % 1003 hPa 0,0 l/m W-SW 14,1 km/h (3 Bft)
04.12.2005 15:00 6,4 C 74 % 1003 hPa 1,0 l/m SW 13,7 km/h (3 Bft)
04.12.2005 16:00 5,9 C 77 % 1002 hPa 0,0 l/m S-SW 14,8 km/h (3 Bft)
04.12.2005 17:00 4,2 C 87 % 1002 hPa 0,0 l/m S-SW 2,7 km/h (1 Bft)
04.12.2005 18:00 3,5 C 93 % 1001 hPa 0,0 l/m S 7,1 km/h (2 Bft)
04.12.2005 19:00 3,4 C 95 % 1002 hPa 0,0 l/m S 4,0 km/h (1 Bft)
04.12.2005 20:00 3,9 C 94 % 1001 hPa 0,0 l/m W-SW 4,6 km/h (1 Bft)
04.12.2005 21:00 5,0 C 86 % 1001 hPa 0,0 l/m W-SW 13,4 km/h (3 Bft)
04.12.2005 22:00 5,5 C 85 % 1002 hPa 1,0 l/m S 32,4 km/h (5 Bft)
04.12.2005 23:00 5,7 C 83 % 1002 hPa 0,0 l/m S 23,7 km/h (4 Bft)
Min-Datum _ 02.12.05 02.12.05 28.11.05 - - 28.11.05
_ Min-Zeit 07:47 12:24 00:00 - - 00:26
Minimum _ -8,1 C 65 % 999 hPa - - 0,0 km/h (0 Bft)
Max-Datum _ 04.12.05 28.11.05 30.11.05 30.11.05 - 04.12.05
_ Max-Zeit 15:01 19:15 19:17 11:28 - 22:48
Maximum _ 7,0 C 100 % 1014 hPa 2,0 l/m - 61,0 km/h
S (7 Bft)
Durchschnitt _ -0,5 C 91 % 1006 hPa #10,0 l/m S-SW 4,4 km/h (1 Bft)

Durchschnitt Minimum Temp.-0,7 C
Durchschnitt Maximum Temp.-0,2 C